| time (UTC) | temp F | wind direction | speed MPH | gust MPH | rain 1hr in | rain 24hr in | rain mn in | humidity % | barometer mb |
| 20260507181535 | 65 | 301 | 4.0 | 0.0 | 0.00 | 0.00 | 0.04 | 29 | 1004.1 |
| 20260507180035 | 65 | 281 | 5.0 | 0.0 | 0.00 | 0.00 | 0.04 | 29 | 1004.1 |
| 20260507174530 | 66 | 272 | 3.0 | 0.0 | 0.00 | 0.00 | 0.04 | 31 | 1004.1 |
| 20260507173030 | 65 | 247 | 2.0 | 0.0 | 0.00 | 0.00 | 0.04 | 35 | 1004.1 |
| 20260507171525 | 64 | 291 | 3.0 | 0.0 | 0.00 | 0.00 | 0.04 | 35 | 1004.1 |
| 20260507170053 | 63 | 338 | 3.0 | 0.0 | 0.00 | 0.00 | 0.04 | 37 | 1004.6 |
| 20260507164552 | 63 | 279 | 5.0 | 0.0 | 0.00 | 0.00 | 0.04 | 35 | 1004.6 |
| 20260507163023 | 63 | 269 | 4.0 | 0.0 | 0.00 | 0.00 | 0.04 | 41 | 1004.7 |
| 20260507161519 | 62 | 302 | 4.0 | 0.0 | 0.00 | 0.00 | 0.04 | 42 | 1004.7 |
| 20260507160045 | 62 | 184 | 1.0 | 0.0 | 0.00 | 0.00 | 0.04 | 47 | 1004.9 |
| 20260507154543 | 60 | 273 | 3.0 | 0.0 | 0.00 | 0.00 | 0.04 | 51 | 1005.1 |
| 20260507153011 | 60 | 266 | 4.0 | 0.0 | 0.00 | 0.00 | 0.04 | 53 | 1005.0 |
| 20260507151508 | 59 | 263 | 2.0 | 0.0 | 0.00 | 0.00 | 0.04 | 55 | 1005.0 |
| 20260507150009 | 58 | 297 | 4.0 | 0.0 | 0.00 | 0.00 | 0.04 | 57 | 1005.3 |
| 20260507144505 | 58 | 307 | 3.0 | 0.0 | 0.00 | 0.00 | 0.04 | 56 | 1005.6 |
| 20260507143003 | 59 | 243 | 0.0 | 0.0 | 0.00 | 0.00 | 0.04 | 57 | 1005.5 |
| 20260507141502 | 59 | 295 | 2.0 | 0.0 | 0.00 | 0.00 | 0.04 | 56 | 1005.5 |
| 20260507140110 | 58 | 259 | 2.0 | 0.0 | 0.00 | 0.00 | 0.04 | 58 | 1005.7 |
| 20260507134556 | 58 | 347 | 1.0 | 0.0 | 0.00 | 0.00 | 0.04 | 59 | 1005.5 |
| 20260507133054 | 56 | 293 | 2.0 | 0.0 | 0.00 | 0.00 | 0.04 | 62 | 1005.6 |
| 20260507131554 | 55 | 296 | 4.0 | 0.0 | 0.00 | 0.00 | 0.04 | 63 | 1005.8 |
| 20260507130049 | 54 | 273 | 2.0 | 0.0 | 0.00 | 0.00 | 0.04 | 67 | 1005.9 |
| 20260507124547 | 52 | 311 | 2.0 | 0.0 | 0.00 | 0.00 | 0.04 | 72 | 1006.1 |
| 20260507123046 | 51 | 311 | 2.0 | 0.0 | 0.00 | 0.00 | 0.04 | 77 | 1006.1 |
| 20260507121545 | 50 | 259 | 3.0 | 0.0 | 0.00 | 0.00 | 0.04 | 77 | 1006.1 |
| 20260507120012 | 49 | 301 | 2.0 | 0.0 | 0.00 | 0.00 | 0.04 | 82 | 1006.0 |
| 20260507114511 | 48 | 288 | 0.0 | 0.0 | 0.00 | 0.00 | 0.04 | 85 | 1006.0 |
| 20260507113008 | 48 | 288 | 0.0 | 0.0 | 0.00 | 0.00 | 0.04 | 86 | 1005.9 |
| 20260507111510 | 47 | 288 | 0.0 | 0.0 | 0.00 | 0.00 | 0.04 | 87 | 1006.0 |
| 20260507110012 | 47 | 288 | 0.0 | 0.0 | 0.00 | 0.00 | 0.04 | 87 | 1005.4 |
| 20260507104506 | 47 | 288 | 0.0 | 0.0 | 0.00 | 0.00 | 0.04 | 86 | 1005.9 |
| 20260507103005 | 47 | 288 | 0.0 | 0.0 | 0.00 | 0.00 | 0.04 | 85 | 1005.2 |
| 20260507101503 | 47 | 289 | 0.0 | 0.0 | 0.00 | 0.00 | 0.04 | 85 | 1005.1 |
| 20260507094603 | 47 | 290 | 1.0 | 0.0 | 0.00 | 0.00 | 0.04 | 85 | 1004.7 |
| 20260507093055 | 47 | 259 | 1.0 | 0.0 | 0.00 | 0.00 | 0.04 | 86 | 1005.2 |
| 20260507091602 | 48 | 279 | 0.0 | 0.0 | 0.00 | 0.00 | 0.03 | 86 | 1005.1 |
| 20260507090109 | 48 | 286 | 0.0 | 0.0 | 0.00 | 0.00 | 0.03 | 86 | 1005.5 |
| 20260507084549 | 49 | 283 | 0.0 | 0.0 | 0.00 | 0.00 | 0.03 | 86 | 1005.3 |
| 20260507083044 | 49 | 284 | 0.0 | 0.0 | 0.00 | 0.00 | 0.03 | 86 | 1005.2 |
| 20260507081551 | 50 | 308 | 0.0 | 0.0 | 0.00 | 0.00 | 0.02 | 86 | 1004.7 |
| 20260507080037 | 50 | 309 | 0.0 | 0.0 | 0.00 | 0.00 | 0.02 | 86 | 1004.7 |
| 20260507074540 | 51 | 309 | 0.0 | 0.0 | 0.00 | 0.00 | 0.02 | 85 | 1005.2 |
| 20260507073036 | 51 | 297 | 3.0 | 0.0 | 0.00 | 0.00 | 0.01 | 84 | 1005.1 |
| 20260507071529 | 52 | 270 | 1.0 | 0.0 | 0.00 | 0.00 | 0.01 | 85 | 1004.2 |
| 20260507070027 | 52 | 289 | 0.0 | 0.0 | 0.00 | 0.00 | 0.01 | 85 | 1004.3 |
| 20260507064526 | 52 | 290 | 0.0 | 0.0 | 0.00 | 0.00 | 0.01 | 85 | 1004.1 |
| 20260507063018 | 53 | 278 | 1.0 | 0.0 | 0.00 | 0.00 | 0.01 | 86 | 1004.2 |
| 20260507061528 | 53 | 294 | 0.0 | 0.0 | 0.00 | 0.00 | 0.01 | 87 | 1004.3 |
| 20260507060026 | 53 | 296 | 1.0 | 0.0 | 0.00 | 0.00 | 0.01 | 86 | 1004.2 |
| 20260507054513 | 54 | 293 | 1.0 | 0.0 | 0.00 | 0.00 | 0.01 | 86 | 1004.3 |
| 20260507053014 | 54 | 294 | 1.0 | 0.0 | 0.00 | 0.00 | 0.01 | 86 | 1004.6 |
| 20260507051507 | 54 | 302 | 3.0 | 0.0 | 0.00 | 0.00 | 0.01 | 86 | 1004.6 |
| 20260507050006 | 55 | 263 | 2.0 | 0.0 | 0.00 | 0.00 | 0.01 | 87 | 1004.4 |
| 20260507044501 | 55 | 277 | 0.0 | 0.0 | 0.00 | 0.00 | 0.01 | 88 | 1004.8 |
| 20260507043058 | 56 | 267 | 3.0 | 0.0 | 0.00 | 0.00 | 0.01 | 88 | 1004.5 |
| 20260507041551 | 57 | 293 | 2.0 | 0.0 | 0.00 | 0.00 | 0.01 | 90 | 1004.4 |
| 20260507040051 | 57 | 281 | 0.0 | 0.0 | 0.00 | 0.00 | 0.00 | 91 | 1004.4 |
| 20260507034549 | 57 | 242 | 0.0 | 0.0 | 0.00 | 0.00 | 0.14 | 92 | 1004.3 |
| 20260507033046 | 58 | 271 | 0.0 | 0.0 | 0.00 | 0.00 | 0.14 | 92 | 1004.1 |
| 20260507031543 | 58 | 259 | 2.0 | 0.0 | 0.00 | 0.00 | 0.14 | 92 | 1003.9 |
| 20260507030046 | 58 | 217 | 0.0 | 0.0 | 0.00 | 0.00 | 0.14 | 92 | 1003.7 |
| 20260507024543 | 58 | 214 | 1.0 | 0.0 | 0.00 | 0.00 | 0.13 | 92 | 1003.2 |
| 20260507023041 | 58 | 263 | 0.0 | 0.0 | 0.00 | 0.00 | 0.13 | 92 | 1003.5 |
| 20260507021510 | 58 | 240 | 1.0 | 0.0 | 0.00 | 0.00 | 0.13 | 92 | 1003.4 |
| 20260507020011 | 58 | 244 | 1.0 | 0.0 | 0.00 | 0.00 | 0.13 | 92 | 1003.5 |
| 20260507014507 | 58 | 206 | 1.0 | 0.0 | 0.00 | 0.00 | 0.13 | 92 | 1003.3 |
| 20260507013006 | 58 | 207 | 2.0 | 0.0 | 0.00 | 0.00 | 0.13 | 92 | 1003.5 |
| 20260507011505 | 58 | 209 | 2.0 | 0.0 | 0.00 | 0.00 | 0.13 | 92 | 1003.5 |
| 20260507010005 | 58 | 209 | 2.0 | 0.0 | 0.00 | 0.00 | 0.13 | 92 | 1003.7 |
| 20260507004533 | 58 | 208 | 3.0 | 0.0 | 0.00 | 0.00 | 0.13 | 92 | 1003.7 |
| 20260507003032 | 58 | 204 | 2.0 | 0.0 | 0.00 | 0.00 | 0.13 | 92 | 1003.6 |
| 20260507001529 | 58 | 213 | 3.0 | 0.0 | 0.00 | 0.00 | 0.13 | 92 | 1003.5 |
| 20260507000029 | 58 | 191 | 2.0 | 0.0 | 0.00 | 0.00 | 0.13 | 92 | 1003.5 |
| 20260506234526 | 58 | 192 | 1.0 | 0.0 | 0.00 | 0.00 | 0.13 | 92 | 1003.2 |
| 20260506233025 | 59 | 199 | 0.0 | 0.0 | 0.00 | 0.00 | 0.13 | 91 | 1003.2 |
| 20260506231523 | 59 | 198 | 2.0 | 0.0 | 0.00 | 0.00 | 0.13 | 91 | 1003.1 |
| 20260506230020 | 59 | 203 | 2.0 | 0.0 | 0.00 | 0.00 | 0.09 | 90 | 1003.4 |
| 20260506224518 | 59 | 213 | 3.0 | 0.0 | 0.00 | 0.00 | 0.09 | 90 | 1003.4 |
| 20260506223017 | 59 | 180 | 2.0 | 0.0 | 0.00 | 0.00 | 0.08 | 90 | 1003.3 |
| 20260506221512 | 59 | 248 | 3.0 | 0.0 | 0.00 | 0.00 | 0.08 | 89 | 1003.5 |
| 20260506220012 | 59 | 202 | 2.0 | 0.0 | 0.00 | 0.00 | 0.07 | 89 | 1003.7 |
| 20260506214510 | 59 | 199 | 1.0 | 0.0 | 0.00 | 0.00 | 0.07 | 89 | 1003.8 |
| 20260506213014 | 59 | 190 | 2.0 | 0.0 | 0.00 | 0.00 | 0.07 | 88 | 1004.0 |
| 20260506211538 | 59 | 238 | 5.0 | 0.0 | 0.00 | 0.00 | 0.07 | 88 | 1004.2 |
| 20260506210035 | 60 | 216 | 5.0 | 0.0 | 0.00 | 0.00 | 0.07 | 87 | 1004.1 |
| 20260506204532 | 60 | 211 | 5.0 | 0.0 | 0.00 | 0.00 | 0.07 | 87 | 1004.3 |
| 20260506203032 | 60 | 196 | 4.0 | 0.0 | 0.00 | 0.00 | 0.06 | 86 | 1004.4 |
| 20260506201542 | 60 | 189 | 2.0 | 0.0 | 0.00 | 0.00 | 0.05 | 85 | 1004.4 |
| 20260506200031 | 61 | 190 | 5.0 | 0.0 | 0.00 | 0.00 | 0.05 | 83 | 1004.2 |
| 20260506194559 | 62 | 202 | 3.0 | 0.0 | 0.00 | 0.00 | 0.04 | 82 | 1004.3 |
| 20260506193057 | 63 | 212 | 3.0 | 0.0 | 0.00 | 0.00 | 0.03 | 79 | 1004.3 |
| 20260506191555 | 65 | 214 | 2.0 | 0.0 | 0.00 | 0.00 | 0.02 | 76 | 1004.3 |
| 20260506190054 | 66 | 262 | 4.0 | 0.0 | 0.00 | 0.00 | 0.01 | 72 | 1004.3 |
| 20260506184555 | 67 | 211 | 3.0 | 0.0 | 0.00 | 0.00 | 0.00 | 68 | 1004.5 |
| 20260506183053 | 69 | 182 | 4.0 | 0.0 | 0.00 | 0.00 | 0.00 | 64 | 1004.6 |